Location: Unspecified
(0.0000°N, 0.0000°E)
Time: 00:23:10
(UTC+00:00)

Traac - Pass Details

Date: 21 December 2025
Orbit: 951 x 1102 km, 32.4° (Epoch: 19 January)

Event Time Altitude Azimuth Distance (km) Brightness Sun altitude
Exits shadow 04:41:52 24° 275° (W) 2,028 9.1 -17.4°
Maximum altitude 04:45:51 47° 214° (SSW) 1,381 8.7 -16.5°
Drops below altitude 10° 04:52:43 10° 141° (SE) 2,934 11.5 -15.0°
Sets 04:55:37 0° 136° (SE) 3,902 12.5 -14.3°
